Preview of NWS' New Version of Forecast
This preview is not operational and should not be used for support decisions.

Regional Weather Roundup (RWR)

Issued by National Weather Service (NWS)

                            
000
ASUS43 KMKX 170600
RWRWI 

WISCONSIN REGIONAL WEATHER ROUNDUP
NATIONAL WEATHER SERVICE MILWAUKEE/SULLIVAN WI
1200 AM CST SUN FEB 17 2019

NOTE: "FAIR" INDICATES FEW OR NO CLOUDS BELOW 12,000 FEET WITH NO
SIGNIFICANT WEATHER AND/OR OBSTRUCTIONS TO VISIBILITY.

WIZ001-002-006>008-014>016-023>028-170700-
NORTHWEST WISCONSIN
  
CITY           SKY/WX    TMP DP  RH WIND       PRES   REMARKS
SUPERIOR ARPT  FAIR      15  11  82 NE7       30.13S WCI   5          
6HR MIN TEMP:  15; 6HR MAX TEMP:  17;                                

ASHLAND        FAIR      12   9  87 NE6       30.12F WCI   3          
6HR MIN TEMP:  12; 6HR MAX TEMP:  15;                                

HAYWARD        CLOUDY    13   8  81 NE6       30.05S WCI   4          
6HR MIN TEMP:  13; 6HR MAX TEMP:  22;                                

SIREN          CLOUDY    18  10  73 NE5       30.06R WCI  11          
CUMBERLAND     CLOUDY    14   7  73 E7        30.03S WCI   4          
RICE LAKE      CLOUDY    10   7  88 CALM      30.06R                  
6HR MIN TEMP:   8; 6HR MAX TEMP:  19;                                

CHETEK         CLOUDY    16   8  72 E3        30.04F                  
6HR MIN TEMP:   8; 6HR MAX TEMP:  20;                                

LADYSMITH      FAIR      12   5  74 CALM      30.05S                  
6HR MIN TEMP:  11; 6HR MAX TEMP:  24;                                

EAU CLAIRE     NOT AVBL                                               
MENOMONIE      CLOUDY    12   4  71 E9        30.04R WCI  -1          
6HR MIN TEMP:   5; 6HR MAX TEMP:  15;                                

NEW RICHMOND   CLOUDY    17   8  67 CALM      30.03R                  
6HR MIN TEMP:  13; 6HR MAX TEMP:  19;                                

OSCEOLA        CLOUDY    19  11  73 NE3       30.07S                  
6HR MIN TEMP:  18; 6HR MAX TEMP:  21;                                

$$
 
WIZ003>005-009-010-017-018-170700-
NORTH CENTRAL WISCONSIN
  
CITY           SKY/WX    TMP DP  RH WIND       PRES   REMARKS
MANITOWISH WTR NOT AVBL                                               
ARBOR VITAE    CLOUDY    17  12  82 CALM      30.03S                  
6HR MIN TEMP:  17; 6HR MAX TEMP:  21;                                

WOODRUFF       CLOUDY    17  12  82 CALM      30.03S                  
6HR MIN TEMP:  17; 6HR MAX TEMP:  21;                                

RHINELANDER    FAIR      10   4  76 E3        30.02F                  
6HR MIN TEMP:   9; 6HR MAX TEMP:  18;                                

EAGLE RIVER    FAIR      13   8  80 E5        30.04S WCI   5          
6HR MIN TEMP:  12; 6HR MAX TEMP:  15;                                

LAND O LAKES   FAIR      11   8  88 CALM      30.07S                  
6HR MIN TEMP:  10; 6HR MAX TEMP:  18;                                

PHILLIPS       MOCLDY    14   9  79 CALM      30.02F                  
6HR MIN TEMP:  14; 6HR MAX TEMP:  22;                                

TOMAHAWK       FAIR       9   6  84 CALM      30.04S                  
6HR MIN TEMP:   8; 6HR MAX TEMP:  19;                                

MEDFORD        FAIR      12   6  76 E6        30.01S WCI   3          
6HR MIN TEMP:   9; 6HR MAX TEMP:  16;                                

MERRILL        MOCLDY    11   6  83 CALM      30.05S                  
6HR MIN TEMP:  10; 6HR MAX TEMP:  22;                                

$$
 
WIZ029-030-035-036-043>047-170700-
CENTRAL WISCONSIN
  
CITY           SKY/WX    TMP DP  RH WIND       PRES   REMARKS
WAUSAU         CLOUDY    12   5  73 E7        30.02F WCI   1          
6HR MIN TEMP:  11; 6HR MAX TEMP:  21;                                

MOSINEE        CLOUDY    12   9  85 E9        30.03F WCI   0          
MARSHFIELD     CLOUDY    14   7  73 E10       30.00F WCI   1          
6HR MIN TEMP:  12; 6HR MAX TEMP:  18;                                

STEVENS POINT  CLOUDY    11   6  79 NE6       30.04F WCI   2          
WAUPACA        CLOUDY    16   9  75 N5        30.05F WCI   9          
6HR MIN TEMP:  11; 6HR MAX TEMP:  20;                                

WAUTOMA        CLOUDY    15  11  83 NE9       30.02F WCI   3          
6HR MIN TEMP:   6; 6HR MAX TEMP:  15;                                

WISC RAPIDS    CLOUDY    14   6  70 E9        30.03F WCI   2          
6HR MIN TEMP:  12; 6HR MAX TEMP:  18;                                

CAMP DOUGLAS   CLOUDY    17  13  84 E8        30.02R WCI   6          
6HR MIN TEMP:   7; 6HR MAX TEMP:  17;                                

$$
 
WIZ011>013-019>022-031-037>040-048>050-170700-
NORTHEAST WISCONSIN
  
CITY           SKY/WX    TMP DP  RH WIND       PRES   REMARKS
ANTIGO         FAIR      11   6  81 E7        30.03F WCI   0          
6HR MIN TEMP:   4; 6HR MAX TEMP:  13;                                

SHAWANO        CLOUDY    10   5  77 CALM      30.09F                  
6HR MIN TEMP:   5; 6HR MAX TEMP:  17;                                

OCONTO         CLOUDY    15   9  77 NE7       30.12F WCI   5          
STURGEON BAY   CLOUDY    17  12  80 N7        30.09F WCI   8          
6HR MIN TEMP:  11; 6HR MAX TEMP:  17;                                

GREEN BAY      CLOUDY    17   9  70 NE16      30.09F WCI   2          
6HR MIN TEMP:  10; 6HR MAX TEMP:  17;                                

MANITOWOC      CLOUDY    24  19  81 E13       30.06F WCI  12          
6HR MIN TEMP:  19; 6HR MAX TEMP:  24;                                

APPLETON       CLOUDY    18   9  68 NE8       30.03F WCI   7          
CLINTONVILLE   CLOUDY    15   8  75 N8        30.08F WCI   4          
6HR MIN TEMP:  13; 6HR MAX TEMP:  18;                                

OSHKOSH        CLOUDY    17  11  77 NE15      30.01F WCI   2          
6HR MIN TEMP:  14; 6HR MAX TEMP:  19;                                

$$
 
WIZ032>034-041-042-053>061-170700-
SOUTHWEST WISCONSIN
  
CITY           SKY/WX    TMP DP  RH WIND       PRES   REMARKS
LA CROSSE      CLOUDY    19  12  74 E6        30.04R WCI  11          
6HR MIN TEMP:   6; 6HR MAX TEMP:  20;                                

SPARTA         CLOUDY    17  12  82 CALM      30.04R                  
6HR MIN TEMP:  12; 6HR MAX TEMP:  19;                                

VIROQUA        CLOUDY    18  15  90 E8        29.98R WCI   7          
6HR MIN TEMP:  16; 6HR MAX TEMP:  19;                                

BOSCOBEL       CLOUDY    22  15  75 CALM      30.02R                  
6HR MIN TEMP:  18; 6HR MAX TEMP:  23;                                

PRAIRIE DU CHI CLOUDY    23  14  69 CALM      30.02R                  
6HR MIN TEMP:  21; 6HR MAX TEMP:  24;                                

PLATTEVILLE    CLOUDY    24  20  86 E9        29.99R WCI  14          
6HR MIN TEMP:  24; 6HR MAX TEMP:  25;                                

$$

WIZ056-057-062-063-064-067-068-170700-
SOUTH CENTRAL WISCONSIN
  
CITY           SKY/WX    TMP DP  RH WIND       PRES   REMARKS
REEDSBURG      CLOUDY    19  13  79 E7        30.00R WCI   9          
6HR MIN TEMP:  16; 6HR MAX TEMP:  21;                                

BARABOO/DELLS  CLOUDY    18  13  80 NE8       29.99R WCI   8          
6HR MIN TEMP:  17; 6HR MAX TEMP:  19;                                

LONE ROCK      NOT AVBL                                               
MINERAL POINT  CLOUDY    25  21  86 E9        29.95R WCI  15          
MADISON        CLOUDY    21  16  81 MISG      29.97F                  
6HR MIN TEMP:  19; 6HR MAX TEMP:  22; 6HR PCP: TRACE;                

MIDDLETON      CLOUDY    23  18  82 E8        29.98R WCI  14          
6HR MIN TEMP:  20; 6HR MAX TEMP:  24;                                

WATERTOWN      CLOUDY    23  19  83 NE7       29.95F WCI  15          
6HR MIN TEMP:  22; 6HR MAX TEMP:  25;                                

MONROE         CLOUDY    24  18  77 MISG      29.95R                  
6HR MIN TEMP:  24; 6HR MAX TEMP:  26;                                

JANESVILLE     CLOUDY    28  21  74 E13       29.96S WCI  18          
$$
 
WIZ051-052-058>065-066-070>072-170700-
SOUTHEAST WISCONSIN
  
CITY           SKY/WX    TMP DP  RH WIND       PRES   REMARKS
MILWAUKEE      CLOUDY    28  18  66 E17       29.99F WCI  16          
6HR MIN TEMP:  27; 6HR MAX TEMP:  29;                                

WAUKESHA       CLOUDY    27  19  74 E14G21    29.98S WCI  15          
MILWAUKEE/TIMM CLOUDY    28  18  64 E8        30.00F WCI  20          
RACINE         CLOUDY    27  18  69 E12       30.01F WCI  17          
6HR MIN TEMP:  27; 6HR MAX TEMP:  28;                                

KENOSHA        CLOUDY    27  19  72 E14       29.97F WCI  16          
6HR MIN TEMP:  27; 6HR MAX TEMP:  28;                                

FOND DU LAC    CLOUDY    19  14  81 NE9       30.00F WCI   8          
6HR MIN TEMP:  18; 6HR MAX TEMP:  20;                                

SHEBOYGAN      CLOUDY    25  18  74 E14       30.02F WCI  13          
6HR MIN TEMP:  20; 6HR MAX TEMP:  26;                                

WEST BEND      CLOUDY    23  19  86 NE7       29.99F WCI  15          
JUNEAU         CLOUDY    19  15  83 NE6       29.99F WCI  11          
6HR MIN TEMP:  18; 6HR MAX TEMP:  21;                                

$$

LSZ147-162-170700-
LAKE SUPERIOR
  
STATION/POSITION TIME  TEMP    WIND        PRES    WAVE
                       AIR SEA DIR/SP/G            HT/PER
                 (UTC) (F)     (DEG/KT/KT) (MB)    (FT/S)
DEVILS ISLAND    0500   18      80/ 15/ 16 1022.1R
SAXON HARBOR     0540    9      CALM  /  2 1020.0S
$$
 
LMZ867-665-643>646-170700-
LAKE MICHIGAN
  
STATION/POSITION TIME  TEMP    WIND        PRES    WAVE
                       AIR SEA DIR/SP/G            HT/PER
                 (UTC) (F)     (DEG/KT/KT) (MB)    (FT/S)
NORTHPORT PIER   0540   16     360/  4/  6 1020.7S
KEWAUNEE LAKESHO 0530   25      90/ 16/ 18 1018.3F
SHEBOYGAN LAKESH 0500   27      70/ 20/ 23 1018.7F
PORT WASHINGTON  0540   30      80/ 12/ 17 1017.6F
MILWAUKEE LAKESH 0540   28     100/ 19/ 21   N/A
KENOSHA   LAKESH 0500   27     100/ 17/ 21 1016.3
$$

TC  - TEMPERATURE IN CELSIUS
VSB - VISIBILITY IN STATUTE MILES
WCI -